Location: Baaigem
(50.9320°N, 3.7203°E)
Time: 04:09:31
(UTC+00:00)

Daily predictions for brighter satellites

Satellite Brightness Start Highest point End
(mag) Time Altitude Azimuth Time Altitude Azimuth Time Altitude Azimuth
Cosmos 1461 4.2 00:01:19 10° NW 00:03:29 32° NW 00:03:29 32° NW
Cosmos 158 Rocket 4.3 00:05:02 49° W 00:05:29 51° WNW 00:10:26 10° NNE
Cosmos 1844 Rocket 4.3 00:02:03 10° NW 00:05:29 20° W 00:05:29 20° W
Cosmos 1943 Rocket 3.5 00:01:17 10° NNW 00:06:33 37° NE 00:10:24 17° ESE
Lacrosse 4 Rocket 4.1 00:04:33 10° WNW 00:06:50 15° NNW 00:09:07 10° N
Geosat 4.4 00:06:03 47° E 00:07:10 58° NE 00:12:07 10° NNW
SL-16 R/B 3.6 00:06:04 21° W 00:09:01 33° NW 00:14:08 10° NNE
ATLAS 5 CENTAUR R/B 3.4 00:06:21 10° NNW 00:10:25 33° NNE 00:15:21 10° E
RESURS DK-1 4.0 00:13:30 27° ENE 00:13:30 27° ENE 00:15:52 10° NE
Cosmos 972 Rocket 4.1 00:12:33 60° E 00:12:33 60° E 00:17:21 10° NNE
Okean 3 Rocket 4.3 00:10:59 10° N 00:15:22 46° ENE 00:15:30 45° E
Cosmos 1867 3.8 00:10:35 10° NW 00:15:26 57° W 00:15:26 57° W
NOSS 2-2 (D) 3.8 00:13:58 10° NW 00:18:06 77° NE 00:18:12 76° ENE
USA 32 4.1 00:20:05 64° W 00:20:18 64° W 00:25:32 10° N
Cosmos 1842 Rocket 4.5 00:27:32 40° E 00:27:32 40° E 00:31:36 10° NNE
Cosmos 2344 4.0 00:20:10 10° NW 00:28:19 85° NE 00:39:31 10° SE
Aureole 3 Rocket 4.4 00:27:10 10° NNW 00:29:21 25° NW 00:29:21 25° NW
Tsikada Rocket 4.0 00:30:35 56° SW 00:31:42 68° WNW 00:37:52 10° N
USA 215 4.1 00:28:06 10° ENE 00:33:50 32° SE 00:34:07 32° SE
Cosmos 1536 4.0 00:31:52 10° N 00:35:23 34° ENE 00:35:23 34° ENE
Lacrosse 5 2.7 00:35:37 21° W 00:38:44 49° NNW 00:43:43 10° ENE
Meteor 1-11 Rocket 4.3 00:35:11 10° N 00:40:35 49° ENE 00:42:35 34° ESE
NOSS 2-3 (C) 4.4 00:37:21 10° NW 00:42:53 75° SW 00:45:10 45° SSE
ATLAS 3B R/B 4.1 00:36:19 10° NW 00:43:39 43° NNE 00:51:03 10° E
NOSS 0 Rocket 4.1 00:45:55 50° SSE 00:46:59 57° ESE 00:53:01 10° NE
NOSS 2-3 (D) 4.4 00:42:26 10° NW 00:47:57 73° SW 00:50:20 43° SSE
NOSS 3-4 (A) 4.0 00:51:31 28° W 00:54:13 49° NNW 01:00:21 10° NE
NOSS 3-4 (C) 4.0 00:51:35 29° W 00:54:15 49° NNW 01:00:24 10° NE
Cosmos 1766 Rocket 4.4 00:52:31 10° NNW 00:55:54 39° WNW 00:55:54 39° WNW
Gbstr 26 Del rocket 3.0 00:57:32 78° ENE 00:57:32 78° ENE 01:01:20 10° E
H-2A R/B 3.7 00:53:58 10° N 00:57:17 23° WNW 00:57:40 22° WNW
Cosmos 2369 Rocket 4.3 00:54:37 10° NNW 00:59:16 26° NE 01:03:54 10° E
Cosmos 2237 Rocket 2.6 00:59:39 45° SE 01:00:40 51° ESE 01:06:11 10° NE
IDEFIX/ARIANE 42P 3.6 00:57:35 10° NNE 01:02:25 37° E 01:03:55 31° SE
Cosmos 1980 3.9 01:02:36 49° SSE 01:03:38 56° ESE 01:09:09 10° NE
NOSS 2-2 (C) 4.3 01:01:36 10° NW 01:04:40 43° W 01:04:40 43° W
CZ-2D R/B 3.4 01:03:24 10° NNE 01:08:17 33° E 01:10:23 25° SE
USA 267 3.3 01:03:53 10° ESE 01:10:24 82° NNE 01:16:58 10° WNW
Cosmos 1151 Rocket 4.5 01:10:36 26° ESE 01:11:42 29° E 01:15:29 10° NNE
USA 308 4.2 01:14:03 26° E 01:14:03 26° E 01:16:11 10° ENE
Cosmos 2360 Rocket 4.0 01:10:54 15° W 01:14:17 24° NW 01:18:52 10° NNE
COSMOS 2428 2.9 01:13:37 46° WSW 01:15:06 63° NW 01:20:46 10° NNE
Meteor 2-9 Rocket 4.3 01:09:52 10° N 01:15:18 69° ENE 01:17:36 36° SSE
Cosmos 1743 Rocket 3.8 01:12:12 10° N 01:16:30 61° ENE 01:17:16 51° ESE
Meteor 2-6 Rocket 4.4 01:15:50 50° SW 01:17:16 68° WNW 01:23:07 10° N
Cosmos 1726 3.3 01:16:03 10° NNW 01:17:55 32° NNW 01:17:55 32° NNW
Resurs 1-4 Rocket 2.9 01:15:19 10° NNE 01:20:21 42° E 01:22:17 31° SE
Helios 1A Rocket 4.4 01:22:22 24° WNW 01:22:22 24° WNW 01:24:37 10° NW
Cosmos 2322 4.3 01:21:01 35° W 01:22:55 48° NW 01:28:28 10° NNE
BREEZE-M DEB (TANK) 4.2 01:27:27 14° E 01:27:27 14° E 01:27:50 10° E
Cosmos 2219 Rocket 3.5 01:23:12 23° W 01:25:41 32° NW 01:30:41 10° NNE
IRIDIUM 104 4.3 01:20:50 10° N 01:26:00 64° W 01:26:54 54° SW
Cosmos 2221 3.9 01:26:50 27° WNW 01:26:55 27° WNW 01:30:34 10° N
Cosmos 2322 Rocket 4.4 01:27:18 10° WNW 01:31:04 18° NNW 01:34:50 10° N
Cosmos 2278 Rocket 2.6 01:27:02 10° NW 01:32:20 41° WSW 01:32:30 41° WSW
USA 290 3.6 01:36:00 10° N 01:39:04 37° ENE 01:40:17 26° ESE
COBE Rocket 4.1 01:37:08 10° NNE 01:41:44 58° E 01:43:15 39° SSE
Meteor 2-10 4.1 01:36:01 10° NNW 01:41:44 83° W 01:44:15 36° S
Cosmos 1420 Rocket 3.9 01:36:35 10° NNW 01:41:52 81° WSW 01:44:11 35° SSE
Cosmos 2333 Rocket 4.2 01:38:15 10° W 01:42:22 20° NW 01:46:32 10° NNE
Cosmos 1680 Rocket 3.7 01:42:34 41° S 01:44:19 67° ESE 01:49:37 10° NNE
ADEOS II 2.9 01:39:38 10° NNE 01:44:39 43° E 01:47:24 24° SSE
RESURS DK-1 3.4 01:49:06 30° WNW 01:49:55 33° NW 01:53:39 10° NNE
Cosmos 1943 Rocket 2.4 01:45:01 10° NW 01:50:29 50° WSW 01:51:51 41° SSW
Meteor 1-28 Rocket 3.9 01:49:06 28° SE 01:50:41 49° ENE 01:54:13 10° N
Nadezhda 4 Rocket 4.0 01:50:48 38° SW 01:53:07 64° WNW 01:59:14 10° N
ATLAS 2AS CENTAUR R/B 3.1 01:49:36 31° S 01:53:09 58° SE 02:00:07 10° NE
ATLAS 5 CENTAUR R/B 1.9 01:49:53 10° NW 01:54:41 71° SW 02:00:41 10° SSE
Cosmos 1408 Rocket 4.4 01:51:10 10° NNW 01:54:59 34° W 01:54:59 34° W
Cosmos 2056 Rocket 3.5 01:50:09 10° NNW 01:55:34 75° WSW 01:58:37 27° SSE
Cosmos 1428 Rocket 4.4 01:53:46 34° SSW 01:56:42 84° W 02:02:58 10° N
SL-16 R/B 2.9 01:54:58 26° SSE 01:57:46 45° ESE 02:03:09 10° NE
Sich 1 3.3 01:57:03 10° NNW 02:01:07 46° W 02:01:28 45° WSW
GP-B 3.0 01:57:55 10° N 02:02:22 89° ENE 02:03:57 40° S
Cosmos 1340 Rocket 3.1 02:01:33 39° SSE 02:02:43 59° E 02:06:36 10° NNE
CZ-2C R/B 2.5 02:00:14 30° S 02:03:00 74° WSW 02:08:19 10° NNW
Meteor 1-27 Rocket 3.7 02:01:01 37° SSW 02:03:22 74° WNW 02:09:00 10° N
GEOS 3 Rocket 3.5 02:00:00 10° SE 02:05:20 74° SW 02:10:40 10° NW
Cosmos 1624 Rocket 3.9 02:00:19 10° NNW 02:05:29 64° WSW 02:08:03 29° S
Okean 1 3.6 02:05:34 43° W 02:05:53 44° WNW 02:09:33 10° N
SL-16 R/B 2.6 02:00:39 10° SSE 02:06:52 82° ENE 02:13:09 10° NNW
ALOS 3.5 02:02:44 10° NNE 02:07:02 36° E 02:10:17 16° SSE
NPP 3.7 02:04:24 10° NNE 02:09:47 69° WNW 02:12:10 34° SW
Cosmos 1340 2.3 02:06:42 10° NNW 02:10:08 85° ENE 02:10:59 49° SSE
NOSS 3-1 (A) 4.1 02:03:13 10° NW 02:10:17 82° NE 02:18:59 10° SE
Cosmos 1536 4.3 02:08:14 10° NW 02:10:40 21° WNW 02:10:40 21° WNW
Cosmos 1805 3.0 02:08:42 10° NNW 02:12:25 78° W 02:13:21 48° S
Cosmos 1733 3.6 02:10:22 10° NNW 02:13:33 38° W 02:13:33 38° W
H-2A R/B 4.0 02:12:51 10° N 02:16:42 41° WNW 02:17:40 35° WSW
USA 215 3.2 02:10:51 10° ENE 02:17:26 84° SSE 02:21:28 26° SW
Cosmos 1805 Rocket 4.3 02:13:51 10° NNW 02:17:42 32° W 02:18:06 32° WSW
Intercosmos 25 Rocket 3.9 02:15:28 10° N 02:19:19 76° E 02:25:17 10° SSE
COSMOS 2441 4.3 02:17:07 10° NNE 02:22:01 84° WNW 02:24:30 30° SSW
Lacrosse 5 3.0 02:17:34 10° WNW 02:22:29 44° N 02:27:23 10° E
Cosmos 1666 Rocket 3.5 02:18:08 10° NNW 02:22:37 78° W 02:25:08 25° S
Cosmos 923 Rocket 4.4 02:20:52 30° WSW 02:23:11 50° WNW 02:28:23 10° NNE
Cosmos 1553 Rocket 4.0 02:17:12 10° N 02:23:30 86° E 02:29:39 10° S
NOSS 3-1 (C) 4.1 02:21:04 10° NW 02:28:10 57° SW 02:36:43 10° SSE
Kosmos-1783 4.2 02:34:29 21° NNW 02:34:29 21° NNW 02:36:04 10° NNE
ATLAS 3B R/B 3.0 02:27:21 10° NW 02:35:12 83° SW 02:43:00 10° SE
MSX 4.1 02:29:39 10° N 02:35:17 54° WNW 02:38:35 24° SW
MINOTAUR IV R/B 4.4 02:33:54 10° NNW 02:38:22 82° WSW 02:42:47 10° SSE
Cosmos 1656 Rocket 3.5 02:34:06 10° NNW 02:39:30 70° WSW 02:44:53 10° SSE
Cosmos 1470 4.3 02:37:22 10° N 02:40:56 36° ENE 02:44:27 10° SE
Cosmos 2026 Rocket 4.3 02:37:39 23° SW 02:41:30 55° WNW 02:47:48 10° N
IDEFIX/ARIANE 42P 3.3 02:37:10 10° N 02:41:58 39° WNW 02:44:41 22° WSW
Cosmos 1328 Rocket 3.5 02:41:11 23° SSW 02:43:53 80° W 02:48:20 10° N
Gbstr 26 Del rocket 2.7 02:39:47 11° W 02:43:55 88° NNE 02:47:45 10° ESE
Cosmos 2369 Rocket 2.1 02:38:19 10° NNW 02:43:56 80° WSW 02:49:32 10° SSE
Cosmos 1626 1.8 02:42:31 27° S 02:44:10 80° E 02:47:28 10° NNE
USA 308 2.7 02:42:29 26° W 02:44:30 71° NNW 02:48:25 10° ENE
Cosmos 2237 Rocket 3.2 02:41:27 19° WSW 02:44:56 37° NW 02:50:13 10° NNE
Cosmos 1066 Rocket 4.5 02:40:39 12° S 02:45:43 66° E 02:51:18 10° NNE
Cosmos 1092 Rocket 4.3 02:42:40 23° SW 02:46:23 50° WNW 02:52:23 10° N
CZ-2C R/B 3.2 02:42:55 10° N 02:48:09 64° WNW 02:51:58 20° SSW
CZ-2D R/B 2.7 02:43:18 10° N 02:48:25 45° WNW 02:51:41 21° SW
Cosmos 1975 3.3 02:45:19 10° NNW 02:48:55 37° W 02:50:23 27° SW
Cosmos 1151 Rocket 3.9 02:47:21 24° WSW 02:49:06 33° WNW 02:53:05 10° N
Cosmos 921 Rocket 3.3 02:48:29 26° SW 02:50:43 52° WNW 02:55:04 10° NNE
SAR-Lupe-1 4.1 02:48:33 10° N 02:52:09 65° WNW 02:54:03 25° SSW
Cosmos 1633 Rocket 3.3 02:47:58 10° NNW 02:52:10 48° W 02:55:02 19° SSW
Cosmos 2297 3.8 02:46:52 10° NW 02:52:29 55° WSW 02:58:04 10° S
AQUA 3.9 02:48:53 10° N 02:53:34 61° WNW 02:56:41 20° SW
USA 267 3.5 02:47:41 10° SSE 02:53:48 42° SW 02:59:57 10° WNW
SAR-Lupe-4 3.7 02:52:49 10° N 02:56:20 55° WNW 02:58:13 24° SW
Cosmos 44 4.1 02:53:32 10° NW 02:58:31 54° NE 03:03:11 10° ESE
Resurs 1-4 Rocket 3.0 02:55:18 10° N 03:00:04 35° WNW 03:03:21 18° WSW
Cosmos 1766 3.1 03:00:03 10° NNW 03:03:43 61° W 03:07:19 10° S
Cosmos 494 Rocket 4.0 03:02:00 18° SSW 03:05:51 72° WNW 03:11:00 10° NNE
Iridium 51 3.8 03:05:13 12° S 03:08:14 90° E 03:11:43 10° N
Meteor 2-4 Rocket 4.0 03:04:17 17° SW 03:08:23 51° WNW 03:13:56 10° N
Cosmos 1943 3.9 03:04:12 10° S 03:09:42 53° ESE 03:15:13 10° NE
FENGYUN 3A 4.1 03:04:57 10° N 03:10:09 48° WNW 03:14:21 15° SW
USA 290 4.0 03:11:06 10° WNW 03:13:01 16° W 03:13:01 16° W
Cosmos 2263 4.2 03:07:57 10° NW 03:13:33 65° WSW 03:19:08 10° SSE
Cosmos 1048 Rocket 4.0 03:09:34 14° SSW 03:14:07 81° WNW 03:19:23 10° NNE
Thor Agena Rocket 4.4 03:09:24 10° NNE 03:14:19 49° E 03:19:14 10° S
UNK 4.2 03:10:20 10° SSW 03:14:39 40° W 03:19:02 10° NNW
CZ-2C R/B 3.0 03:15:00 10° NNE 03:20:09 62° ESE 03:25:11 10° S
H-2A R/B 4.3 03:17:25 10° NE 03:21:31 24° E 03:25:42 10° SE
ADEOS II 3.0 03:19:29 10° N 03:24:11 34° WNW 03:28:17 13° WSW
PAYLOAD A 4.5 03:19:57 10° NNE 03:24:43 57° E 03:29:21 10° S
EO 1 Delta rocket 4.3 03:21:17 10° N 03:25:43 47° WNW 03:30:32 10° SW
Cosmos 883 Rocket 4.4 03:21:28 10° NNW 03:27:37 80° W 03:33:44 10° S
Cosmos 1707 2.7 03:28:18 10° S 03:31:59 82° E 03:35:41 10° NNE
Cosmos 1302 Rocket 4.0 03:26:49 10° NNW 03:32:03 86° WSW 03:37:14 10° SSE
IRS-1D 3.9 03:27:14 10° NNE 03:32:24 68° ESE 03:37:37 10° S
CZ-4 R/B 3.8 03:28:40 10° NNE 03:33:22 71° WNW 03:37:59 10° SSW
Cosmos 1842 3.1 03:32:35 10° SSW 03:36:18 66° WNW 03:40:03 10° N
YAOGAN 6 2.4 03:34:36 10° NNE 03:37:54 79° ESE 03:41:12 10° S
ATLAS 5 CENTAUR R/B 3.6 03:35:07 10° W 03:38:13 16° WSW 03:41:38 10° SSW
Cosmos 2266 Rocket 4.0 03:33:40 10° SSW 03:39:40 64° WNW 03:45:41 10° N
S3M 4.2 03:35:13 10° NNW 03:41:09 50° W 03:47:09 10° SSW
Cosmos 1603 4.2 03:36:06 10° SSW 03:41:36 60° ESE 03:47:10 10° NE
SL-16 R/B 3.0 03:36:50 11° WSW 03:41:59 40° NW 03:47:19 10° NNE
SL-08 ROCKET BODY 4.5 03:37:16 10° SSW 03:43:13 69° WNW 03:49:19 10° N
Cosmos 1452 Rocket 4.2 03:39:07 10° NW 03:43:45 32° WSW 03:48:20 10° SSW
CZ-2C R/B 4.5 03:41:59 10° WSW 03:44:10 12° W 03:46:19 10° WNW
ALOS 3.2 03:40:05 10° N 03:44:13 33° WNW 03:48:19 10° SW
ATLAS 2AS CENTAUR R/B 3.3 03:37:10 10° WSW 03:44:17 51° NNW 03:51:08 10° NE
Cosmos 1515 Rocket 4.1 03:40:48 10° SW 03:45:01 42° WNW 03:49:15 10° N
Cosmos 1869 Rocket 3.5 03:42:09 10° NNW 03:46:27 66° W 03:50:43 10° S
Envisat 3.1 03:44:02 10° N 03:49:04 62° WNW 03:54:03 10° SSW
Cosmos 1758 4.3 03:46:00 10° N 03:49:49 51° ENE 03:53:36 10° SSE
SL-16 R/B 3.8 03:46:37 10° SW 03:51:11 21° W 03:55:47 10° NW
USA 215 3.8 03:53:55 10° ENE 04:00:18 58° NNW 04:06:41 10° W
CZ-3 R/B 4.4 03:54:14 10° SW 04:10:32 23° S 04:17:46 10° SE
